AirNav   Air Wisconsin Up To $57,000 Bonus
 
 500 users online  

67AK South Hollywood Airport
Wasilla, Alaska, USA

GOING TO WASILLA?


FAA INFORMATION EFFECTIVE 15 JULY 2021

Location

FAA Identifier: 67AK
Lat/Long: 61-32-04.7000N 149-40-12.3600W
61-32.078333N 149-40.206000W
61.5346389,-149.6701000
(estimated)
Elevation: 375 ft. / 114 m (estimated)
From city: 5 miles W of WASILLA, AK
Time zone: UTC -8 (UTC -9 during Standard Time)
Zip code: 99652

Airport Operations

Airport use: Private use. Permission required prior to landing
Activation date: 05/2004
Control tower: no
ARTCC: ANCHORAGE CENTER
FSS: KENAI FLIGHT SERVICE STATION [907-283-7211]
Attendance: UNATNDD
Segmented circle: no

Airport Communications

CTAF: 122.8
WX AWOS-3P at IYS (4 nm NE): 135.25 (907-373-3801)
WX AWOS-3P at BCV (8 nm SE): 135.55 (907-688-0826)
WX ASOS at FRN (16 nm S): 134.25
WX ASOS at PAQ (17 nm E): 134.75 (907-746-6675)
WX ASOS at MRI (20 nm S): 124.25 (907-271-5277)

Nearby radio navigation aids

VOR radial/distance  VOR name  Freq  Var
BGQr085/8.7BIG LAKE VORTAC112.5019E
TEDr003/23.5ANCHORAGE VOR/DME113.1518E

Airport Services

Runway Information

Runway E/W

Dimensions: 2640 x 240 ft. / 805 x 73 m
Surface: gravel
RUNWAY E  RUNWAY W
Traffic pattern: leftleft
Obstructions: 40 ft. trees40 ft. trees

Airport Ownership and Management from official FAA records

Ownership: Privately-owned
Owner: CROSS CREEK, INC
BOX 870948
WASILLA, AK 99687
Phone 907-376-2697
Manager: RODNEY WILLIS
4247 S EIDER CIR.
WASILLA, AK 99654
Phone (907) 357-5847

Airport Operational Statistics

Aircraft based on the field: 7
Single engine airplanes: 6
Helicopters: 1
    

Instrument Procedures

There are no published instrument procedures at 67AK.

Some nearby airports with instrument procedures:

PAGQ - Big Lake Airport (4 nm W)
PAWS - Wasilla Airport (4 nm NE)
PAFR - Bryant Army Airfield Heliport (16 nm S)
PAAQ - Warren "Bud" Woods Palmer Municipal Airport (17 nm E)
PAUO - Willow Airport (17 nm NW)
PAED - Elmendorf Air Force Base (17 nm S)
PAMR - Merrill Field Airport (20 nm S)
 
Loc | Ops | Rwys | IFR | FBO | Links
Com | Nav | Svcs | Stats | Notes

Crowley
 
Area around 67AK (South Hollywood Airport)
 
Road maps at: MapQuest Bing Google
 
Aerial photo
WARNING: Photo may not be current or correct
Aerial photo of 67AK (South Hollywood Airport)
Do you have a better or more recent aerial photo of South Hollywood Airport that you would like to share? If so, please send us your photo.

 
Sectional chart

 
Airport distance calculator
Flying to South Hollywood Airport? Find the distance to fly.

From to 67AK

Sunrise and sunset
Times for 28-Jul-2021
 Local
(UTC-8)
 Zulu
(UTC)
Morning civil twilight04:0712:07
Sunrise05:2013:20
Sunset22:5006:50
Evening civil twilight00:0308:03

Current date and time
Zulu (UTC)  28-Jul-2021 10:43:47
Local (UTC-8)  28-Jul-2021 02:43:47
 
METAR
PABV 
8nm SE 
280956Z AUTO 00000KT 10SM OVC041 14/12 A3012 RMK AO2 RAE36 SLP205 P0000 T01440122
PAFR 
16nm S 
280958Z AUTO 00000KT 10SM OVC037 13/11 A3008 RMK AO2 SLP191 T01330106 PNO $
PAAQ 
17nm E 
280953Z AUTO 11003KT 10SM BKN048 OVC070 13/10 A3011 RMK AO2 RAB0858E38 SLP198 P0000 T01280100 TSNO
PAED 
17nm S 
280956Z 00000KT 10SM BKN043 OVC055 14/11 A3011 RMK AO2A DZB22E32 SLP191 P0000 T01420106 $
PAMR 
20nm S 
280953Z 00000KT 10SM BKN045 OVC060 15/09 A3010 RMK SLP194 T01500094
TAF
PAAQ 
17nm E 
280533Z 2806/2906 VRB05KT P6SM OVC040 TEMPO 2806/2810 -RA OVC030 FM281000 14010KT P6SM VCSH OVC040
PAED 
17nm S 
281000Z 2810/2916 VRB06KT 9999 VCSH BKN040 BKN060 OVC100 QNH3007INS BECMG 2814/2815 01009KT 9999 NSW BKN035 BKN060 BKN100 QNH3011INS BECMG 2820/2821 23012KT 9999 SCT030 BKN050 QNH3015INS BECMG 2903/2904 VRB06KT 9999 BKN030 BKN040 BKN100 QNH3016INS TX18/2823Z TN12/2813Z
NOTAMs
Click for the latest NOTAMs
NOTAMs are issued by the DoD/FAA and will open in a separate window not controlled by AirNav.

 

 
 

Would you like to see your business listed on this page?

 If your business provides an interesting product or service to pilots, flight crews, aircraft, or users of the South Hollywood Airport, you should consider listing it here.  To start the listing process, click on the button below
 
Add a business
 

Other Pages about South Hollywood Airport

Update a link
 
Copyright © AirNav, LLC. All rights reserved. Privacy Policy  Contact